Location: Douar Ouled Ben Khada
(35.2097°N, 0.2972°E)
Time: 07:59:11
(UTC+00:00)

Daily predictions for brighter satellites

Satellite Brightness Start Highest point End
(mag) Time Altitude Azimuth Time Altitude Azimuth Time Altitude Azimuth
ISS -3.7 17:37:40 10° SW 17:41:01 89° NNW 17:44:24 10° NE
Lacrosse 5 3.7 17:39:28 10° N 17:41:44 13° NNE 17:43:59 10° NE
Cosmos 1939 Rocket 3.3 17:38:06 10° SE 17:41:59 40° ENE 17:45:50 10° N
Meteor 1-24 Rocket 3.7 17:38:51 10° S 17:44:15 82° W 17:49:35 10° N
COSMOS 2455 2.9 17:39:11 10° SSW 17:45:11 83° ESE 17:51:15 10° NNE
Cosmos 1943 3.2 17:40:07 10° NNW 17:45:49 77° ENE 17:51:26 10° SSE
Cosmos 1726 Rocket 3.8 17:42:26 10° N 17:46:39 46° E 17:50:52 10° SSE
ERS-2 3.1 17:44:38 10° NE 17:47:47 28° E 17:50:56 10° SSE
CZ-2C R/B 4.4 17:47:26 10° ENE 17:49:40 12° E 17:51:52 10° ESE
Cosmos 1844 4.3 17:45:16 10° S 17:50:20 36° ESE 17:55:29 10° NE
CZ-4 R/B 2.6 17:51:19 10° ESE 17:54:25 21° ENE 17:57:30 10° NNE
BREEZE-M DEB (TANK) 3.5 17:51:44 10° NW 17:54:36 82° SW 18:04:04 10° SE
Feng Yun 1-1 Rocket 4.4 17:50:16 10° SE 17:55:27 50° ENE 18:00:45 10° N
Cosmos 1315 Rocket 3.2 17:55:10 10° NNW 17:59:08 70° W 18:03:08 10° S
NOSS 2-1 (D) 4.4 18:01:58 10° SSE 18:04:43 21° ESE 18:06:14 16° E
Hubble Space Telescope 2.4 18:01:42 10° SW 18:05:10 26° S 18:08:39 10° ESE
COSMO-SKYMED 1 2.5 18:01:02 10° NNE 18:05:24 87° ESE 18:09:44 10° SSW
Cosmos 2279 Rocket 4.0 18:00:28 10° N 18:06:46 90° ESE 18:13:00 10° S
USA 267 3.9 18:04:12 12° ENE 18:09:42 36° SE 18:15:36 10° S
Okean-O 3.4 18:06:39 10° SE 18:10:29 30° ENE 18:14:21 10° N
CZ-2C R/B 3.2 18:06:45 10° SSE 18:11:47 56° ENE 18:17:09 10° N
Cosmos 1844 Rocket 2.7 18:06:36 10° SSW 18:12:14 74° ESE 18:17:54 10° NNE
Okean O Rocket 3.0 18:09:04 10° S 18:13:18 43° W 18:17:33 10° NNW
H-2A R/B 2.6 18:10:05 10° SE 18:14:25 32° ENE 18:18:51 10° N
Meteor 1-21 Rocket 4.4 18:09:50 10° SSE 18:15:07 48° E 18:20:24 10° NNE
CZ-4B R/B 2.4 18:12:10 10° N 18:15:23 46° WNW 18:18:32 10° SSW
Aureole 2 Rocket 2.4 18:13:02 10° SSW 18:15:57 64° WNW 18:18:58 10° N
Cosmos 1898 Rocket 4.3 18:16:12 10° SSE 18:20:46 30° E 18:23:42 18° NE
Cosmos 2278 Rocket 4.0 18:19:16 10° ESE 18:20:26 12° ESE 18:20:26 12° ESE
Cosmos 1689 Rocket 2.0 18:20:01 16° NNE 18:22:08 56° E 18:24:55 10° S
Cosmos 773 Rocket 4.4 18:20:55 10° NNW 18:26:00 64° WSW 18:31:03 10° S
CZ-2D R/B 3.3 18:24:07 10° S 18:27:59 81° W 18:31:50 10° NNW
Cosmos 1602 Rocket 4.0 18:24:49 10° SSE 18:28:47 38° E 18:31:34 18° NNE
Cosmos 1818 3.9 18:23:56 10° SW 18:29:17 66° WNW 18:34:44 10° NNE
YAOGAN 1 2.7 18:28:11 10° SSE 18:32:21 50° ENE 18:36:33 10° N
SAR-Lupe-4 3.6 18:32:00 10° N 18:35:35 81° WNW 18:39:08 10° SSW
CSL-04 Rocket 4.2 18:31:24 10° SE 18:36:13 35° ENE 18:41:08 10° N
Meteor 2-10 Rocket 3.7 18:31:09 10° N 18:36:37 80° W 18:41:49 10° S
Helios 1A Rocket 3.2 18:33:24 10° SE 18:37:18 43° ENE 18:41:15 10° N
Cosmos 1092 Rocket 3.9 18:35:56 10° S 18:42:03 65° E 18:48:09 10° NNE
MOS 1 Rocket 4.4 18:45:32 10° N 18:49:30 38° WNW 18:53:28 10° SW
Iridium 4 Rocket 3.7 18:44:32 10° N 18:49:55 48° E 18:54:51 10° SSE
Meteor 2-1 Rocket 4.0 18:45:28 10° N 18:51:02 84° E 18:56:32 10° S
SJ 16-02 2.4 18:47:04 10° SW 18:51:17 45° WNW 18:55:31 10° N
SJ-11-01 4.1 18:46:46 10° SSE 18:51:26 70° ENE 18:56:06 10° N
Cosmos 1937 Rocket 3.7 18:50:52 10° S 18:55:54 47° ESE 18:56:46 43° ENE
NOSS 2-1 (E) 2.8 18:56:11 10° SSW 18:59:32 81° SW 18:59:32 81° SW
Aureole 3 3.1 18:56:59 10° NNW 19:00:14 62° W 19:03:10 10° S
Cosmos 1455 2.8 19:00:56 10° NNW 19:04:40 55° W 19:08:25 10° S
Cosmos 1703 3.7 19:01:10 10° SSW 19:04:59 61° W 19:07:02 26° N
X-37B 2.8 19:03:31 10° WNW 19:05:31 20° NNW 19:05:31 20° NNW
Cosmos 1340 2.6 19:02:20 10° S 19:05:50 77° SSW 19:05:50 77° SSW
ARGOS 3.0 19:09:27 10° SSE 19:14:49 88° ENE 19:20:12 10° NNW
Cosmos 44 3.8 19:12:42 10° SW 19:17:16 56° WNW 19:18:47 39° N
ISS -1.0 19:16:35 10° NW 19:17:58 13° NNW 19:17:58 13° NNW
CSL-04 Debris 4.3 19:19:44 10° S 19:25:07 74° WSW 19:30:31 10° NNW
Lacrosse 5 2.5 19:20:40 10° NNW 19:24:15 43° N 19:24:15 43° N
CZ-4 R/B 3.7 19:25:50 10° SSW 19:29:16 25° W 19:32:41 10° NW
CZ-2C R/B 2.9 19:27:19 28° N 19:30:22 73° WNW 19:35:57 10° SSW
NOSS 3-1 (C) 4.3 19:27:44 10° NNW 19:34:39 48° NE 19:34:39 48° NE
Cosmos 2026 Rocket 4.4 19:30:34 10° SSW 19:36:31 58° W 19:42:35 10° N
Hubble Space Telescope 3.0 19:42:14 10° WSW 19:44:04 21° SW 19:44:04 21° SW
USA 267 3.7 19:51:34 49° N 19:52:47 55° NW 19:59:06 10° WSW
H-2A R/B 4.1 19:49:53 10° SSW 19:53:50 24° W 19:57:51 10° NW
Cosmos 2278 Rocket 3.5 19:59:19 10° SSW 20:02:22 33° SW 20:02:22 33° SW
